Location: Arrien
(43.3167°N, 0.1500°W)
Time: 23:38:05
(UTC+00:00)

Feng Yun 1-1 Rocket - Pass Details

Date: 15 October 2021
Orbit: 830 x 933 km, 99.2° (Epoch: 04 December)

Event Time Altitude Azimuth Distance (km) Brightness Sun altitude
Rises 18:47:05 0° 169° (S) 3,378 7.2 -17.1°
Reaches altitude 10° 18:49:25 10° 172° (S) 2,458 6.5 -17.5°
Maximum altitude 18:54:51 73° 256° (WSW) 900 4.4 -18.5°
Drops below altitude 10° 19:00:29 10° 342° (NNW) 2,537 7.0 -19.5°
Sets 19:02:55 0° 344° (NNW) 3,495 7.7 -19.9°
